Location: Bluff Heights
(33.7692°N, 118.1592°W)
Time: 12:09:00
(UTC+00:00)

A-11 Canister half - All Passes

Search period start: 04 August 2021 00:00
Search period end: 14 August 2021 00:00
Orbit: 1527 x 1682 km, 47.3° (Epoch: 04 August)

Date Brightness Start Highest point End Pass type
(mag) Time Alt. Az. Time Alt. Az. Time Alt. Az.
04 Aug - 01:40:17 10° WNW 01:49:49 57° SW 01:59:01 10° SSE daylight
04 Aug - 03:50:37 10° WSW 03:53:18 11° WSW 03:55:59 10° SW visible
04 Aug - 14:54:28 10° SSE 14:59:24 15° ESE 15:04:21 10° E daylight
04 Aug - 16:53:15 10° SW 17:03:10 63° SE 17:13:08 10° ENE daylight
04 Aug - 18:58:44 10° W 19:08:38 54° NNW 19:18:26 10° NE daylight
04 Aug - 21:06:36 10° WNW 21:15:47 37° N 21:24:46 10° ENE daylight
04 Aug - 23:13:06 10° NW 23:22:53 54° NNE 23:32:18 10° ESE daylight
05 Aug - 01:18:33 10° WNW 01:28:10 60° SW 01:37:28 10° SSE daylight
05 Aug - 03:28:01 10° W 03:31:43 13° WSW 03:35:25 10° SW visible
05 Aug - 14:33:33 10° SSE 14:37:48 13° ESE 14:42:03 10° E daylight
05 Aug - 16:31:40 10° SSW 16:41:30 60° SE 16:51:23 10° ENE daylight
05 Aug - 18:36:56 10° WSW 18:46:53 56° NNW 18:56:45 10° NE daylight
05 Aug - 20:44:47 10° WNW 20:53:59 37° N 21:03:00 10° ENE daylight
05 Aug - 22:51:23 10° NW 23:01:08 53° NNE 23:10:34 10° E daylight
06 Aug - 00:56:49 10° WNW 01:06:32 64° SW 01:15:54 10° SE daylight
06 Aug - 03:05:40 10° W 03:10:08 14° WSW 03:14:34 10° SSW visible
06 Aug - 14:12:49 10° SE 14:16:12 12° ESE 14:19:35 10° E daylight
06 Aug - 16:10:04 10° SSW 16:19:50 57° SE 16:29:40 10° ENE daylight
06 Aug - 18:15:10 10° WSW 18:25:08 58° NNW 18:35:04 10° NE daylight
06 Aug - 20:22:57 10° WNW 20:32:11 37° N 20:41:14 10° ENE daylight
06 Aug - 22:29:39 10° NW 22:39:23 51° NNE 22:48:48 10° E daylight
07 Aug - 00:35:05 10° WNW 00:44:53 67° SW 00:54:19 10° SE daylight
07 Aug - 02:43:28 10° W 02:48:33 16° WSW 02:53:36 10° SSW daylight
07 Aug - 13:52:30 10° SE 13:54:36 11° ESE 13:56:42 10° ESE daylight
07 Aug - 15:48:30 10° SSW 15:58:10 54° SE 16:07:56 10° ENE daylight
07 Aug - 17:53:23 10° WSW 18:03:23 60° NNW 18:13:21 10° NE daylight
07 Aug - 20:01:09 10° WNW 20:10:23 38° N 20:19:28 10° ENE daylight
07 Aug - 22:07:55 10° NW 22:17:39 50° NNE 22:27:02 10° E daylight
08 Aug - 00:13:22 10° WNW 00:23:14 71° SW 00:32:44 10° SE daylight
08 Aug - 02:21:20 10° W 02:26:58 17° WSW 02:32:32 10° SSW daylight
08 Aug - 15:26:56 10° SSW 15:36:31 51° SE 15:46:11 10° ENE daylight
08 Aug - 17:31:37 10° WSW 17:41:38 62° NNW 17:51:40 10° NE daylight
08 Aug - 19:39:19 10° WNW 19:48:35 38° N 19:57:42 10° ENE daylight
08 Aug - 21:46:12 10° NW 21:55:53 48° NNE 22:05:17 10° E daylight
08 Aug - 23:51:38 10° NW 00:01:34 74° SW 00:11:09 10° SE daylight
09 Aug - 01:59:16 10° W 02:05:23 19° WSW 02:11:23 10° SSW daylight
09 Aug - 15:05:24 10° SSW 15:14:52 48° SE 15:24:26 10° ENE daylight
09 Aug - 17:09:51 10° WSW 17:19:54 64° NNW 17:29:58 10° NE daylight
09 Aug - 19:17:30 10° WNW 19:26:47 38° N 19:35:57 10° ENE daylight
09 Aug - 21:24:27 10° NW 21:34:07 47° NNE 21:43:30 10° E daylight
09 Aug - 23:29:55 10° NW 23:39:54 78° SW 23:49:32 10° SE daylight
10 Aug - 01:37:16 10° W 01:43:48 20° SW 01:50:12 10° SSW daylight
10 Aug - 14:43:52 10° SSW 14:53:13 46° SE 15:02:40 10° ENE daylight
10 Aug - 16:48:06 10° WSW 16:58:10 66° NNW 17:08:16 10° NE daylight
10 Aug - 18:55:40 10° WNW 19:04:58 38° N 19:14:11 10° ENE daylight
10 Aug - 21:02:42 10° NW 21:12:21 46° NNE 21:21:43 10° E daylight
10 Aug - 23:08:12 10° NW 23:18:14 81° SW 23:27:55 10° SE daylight
11 Aug - 01:15:18 10° W 01:22:11 22° SW 01:28:58 10° S daylight
11 Aug - 14:22:21 10° SSW 14:31:34 43° SE 14:40:54 10° ENE daylight
11 Aug - 16:26:22 10° WSW 16:36:25 69° NNW 16:46:34 10° NE daylight
11 Aug - 18:33:51 10° WNW 18:43:11 39° N 18:52:25 10° ENE daylight
11 Aug - 20:40:58 10° NW 20:50:35 45° NNE 20:59:57 10° E daylight
11 Aug - 22:46:29 10° NW 22:56:33 84° SW 23:06:16 10° SE daylight
12 Aug - 00:53:22 10° WNW 01:00:36 24° SW 01:07:42 10° S daylight
12 Aug - 14:00:52 10° SSW 14:09:55 41° SE 14:19:07 10° ENE daylight
12 Aug - 16:04:37 10° WSW 16:14:41 71° NNW 16:24:52 10° NE daylight
12 Aug - 18:12:02 10° WNW 18:21:22 39° N 18:30:40 10° ENE daylight
12 Aug - 20:19:13 10° NW 20:28:48 44° NNE 20:38:09 10° E daylight
12 Aug - 22:24:45 10° NW 22:34:52 88° SW 22:44:38 10° SE daylight
13 Aug - 00:31:27 10° WNW 00:39:00 25° SW 00:46:23 10° S daylight
13 Aug - 13:39:23 10° SSW 13:48:17 38° SE 13:57:19 10° ENE daylight
13 Aug - 15:42:53 10° WSW 15:52:58 74° NNW 16:03:10 10° NE daylight
13 Aug - 17:50:12 10° WNW 17:59:34 40° N 18:08:54 10° ENE daylight
13 Aug - 19:57:28 10° NW 20:07:01 43° NNE 20:16:22 10° E daylight
13 Aug - 22:03:02 10° NW 22:13:11 89° NE 22:22:59 10° SE daylight
